Simultaneous Nadir Overpasses (SNOs) Predictions

Prediction of SNOs between NOAA-19 and NPP Satellite Orbit:

Table of predicted SNOs for the next 14.0 days since TLE Epoch: 6/26/2021
Index Date (NOAA-19) Time (NOAA-19) Lat,Lon (NOAA-19) SZA (NOAA-19 ) Date (NPP) Time (NPP) Lat,Lon (NPP) SZA (NPP ) Distance(km) Time Diff (sec)
1 07/05/2021 00:45:08 -78.08, -37.74 123.26 07/05/2021 00:46:21 -78.11, -36.91 123.35 19.25 73
2 07/05/2021 01:36:04 78.16, 129.98 56.77 07/05/2021 01:37:08 78.17, 130.05 56.74 2.37 64
3 07/05/2021 02:27:06 -78.17, -62.73 123.23 07/05/2021 02:27:53 -78.19, -62.73 123.23 2.55 47
4 07/05/2021 03:18:04 78.17, 104.55 56.78 07/05/2021 03:18:38 78.17, 104.67 56.75 2.86 34
5 07/05/2021 04:09:05 -78.18, -88.15 123.22 07/05/2021 04:09:22 -78.19, -88.11 123.22 1.74 17
6 07/05/2021 05:00:03 78.18, 79.12 56.79 07/05/2021 05:00:07 78.18, 79.29 56.76 3.89 4
7 07/05/2021 05:51:05 -78.19,-113.58 123.21 07/05/2021 05:50:52 -78.19,-113.49 123.21 2.00 13
8 07/05/2021 06:42:03 78.19, 53.68 56.79 07/05/2021 06:41:38 78.22, 53.68 56.83 2.92 25
9 07/05/2021 07:33:05 -78.20,-139.01 123.20 07/05/2021 07:32:22 -78.19,-138.88 123.21 3.06 43
10 07/05/2021 08:24:03 78.20, 28.25 56.80 07/05/2021 08:23:08 78.22, 28.30 56.84 2.16 55
11 07/05/2021 09:15:05 -78.21,-164.43 123.19 07/05/2021 09:13:53 -78.23,-164.48 123.14 2.67 72



Historial Predications of SNOs between NOAA-19 and NPP
